Location: Zagreb
(45.8000°N, 16.0000°E)
Time: 00:46:47
(UTC+02:00)

Courier 1B Rocket - Pass Details

Date: 15 August 2022
Orbit: 920 x 1202 km, 28.2° (Epoch: 22 September)

Event Time Altitude Azimuth Distance (km) Brightness Sun altitude
Rises 16:15:00 0° 223° (SW) 3,554 8.7 38.3°
Reaches altitude 10° 16:19:06 10° 197° (SSW) 2,600 7.8 37.6°
Maximum altitude 16:21:55 13° 170° (S) 2,368 7.3 37.2°
Drops below altitude 10° 16:24:44 10° 143° (SE) 2,614 7.2 36.7°
Sets 16:28:53 0° 118° (ESE) 3,587 7.6 36.0°
